Meeker, CO

6:39 AM MDT on October 01, 2016 (GMT -0600)
Meeker

Weather History for KEEO - May, 2014

Change the Weather History Date:

Thursday, May 15, 2014

  Actual Average Record
Temperature  
Mean Temperature 50 °F 51 °F  
Max Temperature 65 °F 67 °F 80 °F (2012)
Min Temperature 34 °F 35 °F 28 °F (1998)
Degree Days  
Heating Degree Days 15 14  
Month to date heating degree days 255 245  
Since 1 July heating degree days 7655 7658  
Cooling Degree Days 0 0  
Month to date cooling degree days 0 0  
Year to date cooling degree days 0 0  
Moisture  
Dew Point 32 °F    
Average Humidity 55    
Maximum Humidity 82    
Minimum Humidity 27    
Precipitation  
Precipitation T in 0.05 in 0.64 in (2003)
Month to date precipitation 1.36 0.80  
Year to date precipitation 7.00 5.50  
Sea Level Pressure  
Sea Level Pressure 30.17 in    
Wind  
Wind Speed 3 mph (NNE)    
Max Wind Speed 20 mph    
Max Gust Speed 30 mph    
Visibility 10 miles    
Events      
T = Trace of Precipitation, MM = Missing Value Source: NWS Daily Summary

Daily Weather History Graph

Daily Weather History Graph

Search for Another Location

Airport or City:

Trip Planner

Search our weather history database for the weather conditions in past years. The results will help you decide how hot, cold, wet, or windy it might be!

Date:

Astronomy

May. 15, 2014 Rise Set
Actual Time 5:56 AM MDT 8:20 PM MDT
Civil Twilight 5:25 AM MDT 8:51 PM MDT
Nautical Twilight 4:47 AM MDT 9:29 PM MDT
Astronomical Twilight 4:05 AM MDT 10:11 PM MDT
Moon 9:31 PM MDT (5/15) 6:45 AM MDT (5/15)
Length of Visible Light 15h 25m
Length of Day
14h 24m
Full, 99% of the Moon is Illuminated
May 15
Full
May 21
Last Quarter
May 28
New
Jun 5
First Quarter
Jun 12
Full

Hourly Weather History & Observations

Time (MDT) Temp. Windchill Dew Point Humidity Pressure Visibility Wind Dir Wind Speed Gust Speed Precip Events Conditions
1:53 AM 42.1 °F 38.4 °F 33.1 °F 70% 30.21 in 10.0 mi Variable 5.8 mph - N/A   Overcast
2:53 AM 44.1 °F - 30.9 °F 60% 30.19 in 10.0 mi Calm Calm - N/A   Overcast
3:53 AM 43.0 °F 41.3 °F 33.1 °F 68% 30.21 in 10.0 mi NNE 3.5 mph - N/A   Overcast
4:53 AM 39.0 °F - 30.9 °F 73% 30.22 in 10.0 mi Calm Calm - N/A   Clear
5:53 AM 36.0 °F 33.3 °F 30.0 °F 79% 30.23 in 10.0 mi East 3.5 mph - N/A   Clear
6:53 AM 36.0 °F - 30.0 °F 79% 30.24 in 10.0 mi Calm Calm - N/A   Partly Cloudy
7:53 AM 42.1 °F - 30.9 °F 65% 30.24 in 10.0 mi Calm Calm - N/A   Overcast
8:53 AM 45.0 °F 42.6 °F 32.0 °F 60% 30.27 in 10.0 mi ESE 4.6 mph - N/A   Overcast
9:53 AM 48.9 °F - 33.1 °F 54% 30.24 in 10.0 mi Calm Calm - N/A   Overcast
10:53 AM 52.0 °F - 28.9 °F 41% 30.22 in 10.0 mi Calm Calm - N/A   Overcast
11:53 AM 57.9 °F - 28.0 °F 32% 30.18 in 10.0 mi North - - 0.00 in   Overcast
1:53 PM 61.0 °F - 30.0 °F 31% 30.14 in 10.0 mi North - - N/A   Overcast
2:53 PM 61.0 °F - 30.0 °F 31% 30.13 in 10.0 mi North - - N/A   Mostly Cloudy
3:53 PM 63.0 °F - 28.0 °F 27% 30.11 in 10.0 mi WSW 9.2 mph - N/A   Mostly Cloudy
4:53 PM 63.0 °F - 28.9 °F 28% 30.12 in 10.0 mi West 6.9 mph - N/A   Mostly Cloudy
5:53 PM 63.0 °F - 28.9 °F 28% 30.10 in 10.0 mi SW 8.1 mph - N/A   Partly Cloudy
6:53 PM 62.1 °F - 33.1 °F 34% 30.09 in 10.0 mi Calm Calm - N/A   Mostly Cloudy
7:53 PM 57.9 °F - 37.9 °F 47% 30.08 in 10.0 mi NNE 4.6 mph - N/A   Scattered Clouds
8:53 PM 53.1 °F - 37.0 °F 55% 30.08 in 10.0 mi Calm Calm - N/A   Overcast
9:53 PM 48.0 °F - 37.9 °F 68% 30.11 in 10.0 mi Calm Calm - N/A   Clear
10:53 PM 46.9 °F - 37.0 °F 68% 30.11 in 10.0 mi Calm Calm - N/A   Clear